YACHTS Weather Reports


time (UTC)temp
C
wind
direction
speed
KPH
gust
KPH
rain 1hr
cm
rain 24hr
cm
rain mn
cm
humidity
%
barometer
mb
20260509212129 14 99 9.7 14.5 0.00 0.00 0.00 79 1017.7
20260509211616 14 336 4.8 14.5 0.00 0.00 0.00 80 1017.7
20260509210550 14 78 1.6 20.9 0.00 0.00 0.00 80 1018.0
20260509210037 13 54 4.8 20.9 0.00 0.00 0.00 81 1018.0
20260509205524 13 68 9.7 20.9 0.00 0.00 0.00 81 1018.0
20260509204458 13 114 8.0 17.7 0.00 0.00 0.00 82 1018.2
20260509203945 12 15 3.2 30.6 0.00 0.00 0.00 83 1018.2
20260509203432 12 75 4.8 30.6 0.00 0.00 0.00 83 1018.3
20260509202919 12 100 14.5 30.6 0.00 0.00 0.00 82 1018.4
20260509202406 12 310 6.4 22.5 0.00 0.00 0.00 82 1018.3
20260509201853 13 345 9.7 19.3 0.00 0.00 0.00 82 1018.3
20260509201340 13 57 8.0 19.3 0.00 0.00 0.00 82 1018.3
20260509200827 12 29 11.3 19.3 0.00 0.00 0.00 82 1018.4
20260509195801 12 77 8.0 19.3 0.00 0.00 0.00 83 1018.5
20260509195248 12 96 9.7 19.3 0.00 0.00 0.00 82 1018.5
20260509194735 13 21 9.7 19.3 0.00 0.00 0.00 82 1018.5
20260509194222 13 105 8.0 19.3 0.00 0.00 0.00 82 1018.5
20260509193709 13 60 3.2 19.3 0.00 0.00 0.00 83 1018.5
20260509193156 13 308 8.0 16.1 0.00 0.00 0.00 83 1018.5
20260509192643 13 323 3.2 14.5 0.00 0.00 0.00 84 1018.6
20260509192130 12 92 4.8 14.5 0.00 0.00 0.00 85 1018.5
20260509191617 12 100 9.7 17.7 0.00 0.00 0.00 85 1018.6
20260509191104 12 51 6.4 17.7 0.00 0.00 0.00 85 1018.7
20260509190551 12 110 8.0 17.7 0.00 0.00 0.00 85 1018.7
20260509190038 12 23 6.4 16.1 0.00 0.00 0.00 85 1019.0
20260509185525 12 63 4.8 16.1 0.00 0.00 0.00 86 1018.9
20260509185013 12 11 9.7 16.1 0.00 0.00 0.00 86 1018.9
20260509184639 12 301 8.0 16.1 0.00 0.00 0.00 86 1019.0
20260509184459 12 301 8.0 16.1 0.00 0.00 0.00 86 1019.0
20260509183946 12 112 4.8 16.1 0.00 0.00 0.00 87 1019.1
20260509183433 12 357 4.8 16.1 0.00 0.00 0.00 87 1019.0
20260509182920 12 302 4.8 16.1 0.00 0.00 0.00 88 1019.0
20260509182407 12 145 9.7 16.1 0.00 0.00 0.00 88 1019.0
20260509181854 12 100 4.8 16.1 0.00 0.00 0.00 88 1019.2
20260509181341 12 0 4.8 14.5 0.00 0.00 0.00 89 1019.1
20260509180828 12 0 4.8 14.5 0.00 0.00 0.00 88 1019.1
20260509180315 12 1 6.4 14.5 0.00 0.00 0.00 89 1019.2
20260509175802 12 329 0.0 14.5 0.00 0.00 0.00 89 1019.1
20260509175249 12 4 4.8 14.5 0.00 0.00 0.00 89 1019.0
20260509174223 12 299 0.0 14.5 0.00 0.00 0.00 90 1019.0
20260509173710 11 313 6.4 14.5 0.00 0.00 0.00 90 1019.0
20260509173157 12 313 0.0 14.5 0.00 0.00 0.00 90 1019.1
20260509172644 12 357 8.0 12.9 0.00 0.00 0.00 90 1019.1
20260509171618 12 289 6.4 11.3 0.00 0.00 0.00 91 1019.1
20260509171105 11 336 0.0 8.0 0.00 0.00 0.00 91 1019.1
20260509170552 11 0 0.0 8.0 0.00 0.00 0.00 92 1019.1
20260509170039 11 0 0.0 8.0 0.00 0.00 0.00 92 1019.3
20260509165526 11 336 3.2 8.0 0.00 0.00 0.00 92 1019.3
20260509164500 11 0 0.0 6.4 0.00 0.00 0.00 92 1019.2
20260509163947 10 0 0.0 6.4 0.00 0.00 0.00 93 1019.2
20260509163434 10 0 0.0 6.4 0.00 0.00 0.00 93 1019.4
20260509162921 10 333 1.6 6.4 0.00 0.00 0.00 93 1019.5
20260509161855 10 0 0.0 0.0 0.00 0.00 0.00 93 1019.5
20260509161342 10 0 0.0 0.0 0.00 0.00 0.00 93 1019.4
20260509160829 10 0 0.0 0.0 0.00 0.00 0.00 93 1019.6
20260509160316 10 0 0.0 0.0 0.00 0.00 0.00 93 1019.5
20260509155805 10 0 0.0 0.0 0.00 0.00 0.00 93 1019.6
20260509155250 10 0 0.0 0.0 0.00 0.00 0.00 93 1019.7
20260509154737 10 0 0.0 0.0 0.00 0.00 0.00 93 1019.8
20260509154224 10 0 0.0 0.0 0.00 0.00 0.00 93 1019.7
20260509153712 10 0 0.0 0.0 0.00 0.00 0.00 93 1019.7
20260509153158 10 0 0.0 0.0 0.00 0.00 0.00 93 1019.8
20260509152645 10 0 0.0 0.0 0.00 0.00 0.00 93 1019.8
20260509152132 10 0 0.0 0.0 0.00 0.00 0.00 93 1019.8
20260509151619 10 0 0.0 0.0 0.00 0.00 0.00 93 1019.8
20260509151106 10 0 0.0 0.0 0.00 0.00 0.00 93 1019.9
20260509150553 10 0 0.0 0.0 0.00 0.00 0.00 93 1019.8
20260509150040 9 0 0.0 0.0 0.00 0.00 0.00 93 1020.0
20260509145528 8 0 0.0 0.0 0.00 0.00 0.00 93 1020.0
20260509145014 8 0 0.0 0.0 0.00 0.00 0.00 93 1020.1
20260509144501 8 0 0.0 0.0 0.00 0.00 0.00 93 1020.0
20260509143948 8 0 0.0 0.0 0.00 0.00 0.00 93 1019.9
20260509143435 8 0 0.0 0.0 0.00 0.00 0.00 93 1019.9
20260509142922 8 0 0.0 0.0 0.00 0.00 0.00 93 1019.8
20260509142408 7 0 0.0 0.0 0.00 0.00 0.00 93 1019.7
20260509141856 7 0 0.0 0.0 0.00 0.00 0.00 93 1019.7
20260509141343 7 0 0.0 0.0 0.00 0.00 0.00 93 1019.9
20260509140830 7 0 0.0 0.0 0.00 0.00 0.00 93 1019.9
20260509140316 7 0 0.0 0.0 0.00 0.00 0.00 93 1019.9
20260509135804 7 0 0.0 0.0 0.00 0.00 0.00 93 1019.8
20260509135250 7 0 0.0 0.0 0.00 0.00 0.00 93 1019.8
20260509134738 7 0 0.0 0.0 0.00 0.00 0.00 93 1019.7
20260509133712 7 0 0.0 0.0 0.00 0.00 0.00 93 1019.7
20260509133200 7 0 0.0 0.0 0.00 0.00 0.00 93 1019.8
20260509132645 7 0 0.0 0.0 0.00 0.00 0.00 93 1019.8
20260509132132 7 0 0.0 0.0 0.00 0.00 0.00 93 1019.8
20260509131106 7 0 0.0 0.0 0.00 0.00 0.00 93 1019.8
20260509130553 7 0 0.0 0.0 0.00 0.00 0.00 93 1019.9
20260509130040 7 0 0.0 0.0 0.00 0.00 0.00 93 1020.0
20260509124501 7 0 0.0 0.0 0.00 0.00 0.00 93 1019.9
20260509123948 7 0 0.0 0.0 0.00 0.00 0.00 93 1019.9
20260509123435 7 0 0.0 0.0 0.00 0.00 0.00 93 1019.9
20260509122922 7 0 0.0 0.0 0.00 0.00 0.00 93 1020.1
20260509122409 7 0 0.0 0.0 0.00 0.00 0.00 93 1020.2
20260509121856 7 0 0.0 0.0 0.00 0.00 0.00 93 1020.2
20260509121343 7 0 0.0 0.0 0.00 0.00 0.00 93 1020.2
20260509120830 7 0 0.0 0.0 0.00 0.00 0.00 93 1020.4
20260509120317 7 0 0.0 0.0 0.00 0.00 0.00 92 1020.4
20260509115804 7 0 0.0 0.0 0.00 0.00 0.00 93 1020.5
20260509115251 7 0 0.0 0.0 0.00 0.00 0.00 92 1020.4
20260509114738 7 0 0.0 0.0 0.00 0.00 0.00 92 1020.4
20260509113712 7 0 0.0 0.0 0.00 0.00 0.00 92 1020.5
20260509113159 7 0 0.0 0.0 0.00 0.00 0.00 92 1020.5
20260509112646 7 0 0.0 0.0 0.00 0.00 0.00 92 1020.7
20260509112133 7 0 0.0 0.0 0.00 0.00 0.00 92 1020.7
20260509111620 7 0 0.0 0.0 0.00 0.00 0.00 92 1020.8
20260509111109 7 0 0.0 0.0 0.00 0.00 0.00 92 1020.8
20260509110554 7 0 0.0 0.0 0.00 0.00 0.00 92 1020.7
20260509110041 7 0 0.0 0.0 0.00 0.00 0.00 92 1020.6
20260509105528 7 0 0.0 0.0 0.00 0.00 0.00 92 1020.7
20260509104502 7 0 0.0 0.0 0.00 0.00 0.00 92 1020.5
20260509103951 7 0 0.0 0.0 0.00 0.00 0.00 92 1020.5
20260509103436 7 0 0.0 0.0 0.00 0.00 0.00 92 1020.5
20260509102923 7 0 0.0 0.0 0.00 0.00 0.00 92 1020.5
20260509102410 7 0 0.0 0.0 0.00 0.00 0.00 91 1020.5
20260509101858 7 0 0.0 0.0 0.00 0.00 0.00 92 1020.7
20260509101344 7 0 0.0 0.0 0.00 0.00 0.00 92 1020.8
20260509100831 7 0 0.0 0.0 0.00 0.00 0.00 91 1020.9
20260509100318 7 0 0.0 0.0 0.00 0.00 0.00 92 1020.9
20260509095252 7 0 0.0 0.0 0.00 0.00 0.00 91 1021.1
20260509094739 7 0 0.0 0.0 0.00 0.00 0.00 91 1021.1
20260509094226 7 0 0.0 0.0 0.00 0.00 0.00 91 1021.2
20260509093713 7 0 0.0 0.0 0.00 0.00 0.00 91 1021.1
20260509093200 7 0 0.0 0.0 0.00 0.00 0.00 91 1021.0
20260509092647 7 0 0.0 0.0 0.00 0.00 0.00 91 1021.0
20260509092134 7 0 0.0 0.0 0.00 0.00 0.00 91 1021.0
20260509091621 7 0 0.0 0.0 0.00 0.00 0.00 91 1020.9
20260509091108 7 0 0.0 0.0 0.00 0.00 0.00 91 1020.9
20260509090555 7 0 0.0 0.0 0.00 0.00 0.00 91 1020.9
20260509085529 7 0 0.0 0.0 0.00 0.00 0.00 91 1021.1
20260509085017 7 0 0.0 0.0 0.00 0.00 0.00 91 1021.0
20260509084503 7 0 0.0 0.0 0.00 0.00 0.00 91 1021.2
20260509083950 7 0 0.0 0.0 0.00 0.00 0.00 90 1021.3
20260509083437 7 0 0.0 0.0 0.00 0.00 0.00 90 1021.3
20260509082924 7 0 0.0 0.0 0.00 0.00 0.00 90 1021.3
20260509082411 7 0 0.0 0.0 0.00 0.00 0.00 90 1021.3
20260509081858 7 0 0.0 0.0 0.00 0.00 0.00 90 1021.4
20260509081345 7 0 0.0 0.0 0.00 0.00 0.00 90 1021.4
20260509080832 7 0 0.0 0.0 0.00 0.00 0.00 90 1021.5
20260509080319 7 0 0.0 0.0 0.00 0.00 0.00 90 1021.5
20260509075806 7 0 0.0 0.0 0.00 0.00 0.00 90 1021.5
20260509075253 7 0 0.0 0.0 0.00 0.00 0.00 90 1021.5
20260509074740 7 0 0.0 0.0 0.00 0.00 0.00 89 1021.6
20260509074227 7 0 0.0 0.0 0.00 0.00 0.00 89 1021.7
20260509073714 7 0 0.0 0.0 0.00 0.00 0.00 89 1021.6
20260509073201 7 0 0.0 0.0 0.00 0.00 0.00 89 1021.7
20260509072648 7 0 0.0 0.0 0.00 0.00 0.00 89 1021.7
20260509072135 7 0 0.0 0.0 0.00 0.00 0.00 89 1021.7
20260509071622 8 0 0.0 0.0 0.00 0.00 0.00 89 1021.7
20260509071110 8 0 0.0 0.0 0.00 0.00 0.00 88 1021.8
20260509070556 8 0 0.0 0.0 0.00 0.00 0.00 88 1021.9
20260509070043 8 0 0.0 0.0 0.00 0.00 0.00 88 1021.8
20260509065530 8 0 0.0 0.0 0.00 0.00 0.00 88 1021.9
20260509065017 8 0 0.0 0.0 0.00 0.00 0.00 88 1021.9
20260509064504 8 0 0.0 0.0 0.00 0.00 0.00 88 1021.9
20260509063951 8 0 0.0 0.0 0.00 0.00 0.00 88 1021.9
20260509063438 8 0 0.0 0.0 0.00 0.00 0.00 87 1022.0
20260509062925 8 0 0.0 0.0 0.00 0.00 0.00 87 1022.0
20260509062412 8 0 0.0 0.0 0.00 0.00 0.00 87 1022.1
20260509061859 8 0 0.0 0.0 0.00 0.00 0.00 87 1022.2
20260509061346 8 0 0.0 0.0 0.00 0.00 0.00 86 1022.2
20260509060833 8 0 0.0 0.0 0.00 0.00 0.00 86 1022.3
20260509060320 8 0 0.0 0.0 0.00 0.00 0.00 86 1022.3
20260509055807 8 0 0.0 0.0 0.00 0.00 0.00 86 1022.4
20260509055254 8 0 0.0 0.0 0.00 0.00 0.00 86 1022.4
20260509054741 8 0 0.0 0.0 0.00 0.00 0.00 86 1022.4
20260509054228 8 0 0.0 0.0 0.00 0.00 0.00 85 1022.4
20260509053715 8 0 0.0 0.0 0.00 0.00 0.00 85 1022.4
20260509053202 8 0 0.0 0.0 0.00 0.00 0.00 85 1022.4
20260509052649 8 0 0.0 0.0 0.00 0.00 0.00 84 1022.4
20260509051623 9 0 0.0 0.0 0.00 0.00 0.00 84 1022.5
20260509051110 9 0 0.0 0.0 0.00 0.00 0.00 84 1022.5
20260509050557 9 0 0.0 0.0 0.00 0.00 0.00 84 1022.5
20260509050044 9 0 0.0 0.0 0.00 0.00 0.00 83 1022.5
20260509045531 9 0 0.0 0.0 0.00 0.00 0.00 83 1022.5
20260509045018 9 0 0.0 0.0 0.00 0.00 0.00 83 1022.4
20260509044505 9 0 0.0 0.0 0.00 0.00 0.00 82 1022.3
20260509043952 9 0 0.0 0.0 0.00 0.00 0.00 82 1022.4
20260509043439 10 0 0.0 0.0 0.00 0.00 0.00 82 1022.4
20260509042926 10 0 0.0 0.0 0.00 0.00 0.00 81 1022.4
20260509042414 10 0 0.0 0.0 0.00 0.00 0.00 81 1022.4
20260509041900 10 0 0.0 0.0 0.00 0.00 0.00 81 1022.4
20260509041347 10 0 0.0 0.0 0.00 0.00 0.00 81 1022.3
20260509040834 10 0 0.0 0.0 0.00 0.00 0.00 80 1022.3
20260509040321 10 0 0.0 0.0 0.00 0.00 0.00 80 1022.2
20260509035808 10 0 0.0 0.0 0.00 0.00 0.00 80 1022.2
20260509035255 10 0 0.0 0.0 0.00 0.00 0.00 80 1022.2
20260509034742 10 0 0.0 0.0 0.00 0.00 0.00 79 1022.1
20260509034229 11 0 0.0 0.0 0.00 0.00 0.00 79 1022.0
20260509033716 11 0 0.0 0.0 0.00 0.00 0.00 79 1022.1
20260509033203 11 0 0.0 0.0 0.00 0.00 0.00 79 1022.0
20260509032650 11 0 0.0 0.0 0.00 0.00 0.00 79 1022.1
20260509032137 11 0 0.0 0.0 0.00 0.00 0.00 79 1022.1
20260509031624 11 0 0.0 0.0 0.00 0.00 0.00 79 1022.1
20260509030558 11 0 0.0 6.4 0.00 0.00 0.00 78 1022.2
20260509025532 11 95 0.0 6.4 0.00 0.00 0.00 78 1022.1
20260509025019 11 0 0.0 11.3 0.00 0.00 0.00 78 1022.2
20260509024506 11 0 0.0 11.3 0.00 0.00 0.00 78 1022.1
20260509023953 11 0 0.0 11.3 0.00 0.00 0.00 78 1022.1
20260509023440 12 0 0.0 0.0 0.00 0.00 0.00 78 1022.1
20260509022927 11 0 0.0 11.3 0.00 0.00 0.00 78 1022.1
20260509022414 11 0 0.0 11.3 0.00 0.00 0.00 78 1022.1
20260509021901 12 296 0.0 11.3 0.00 0.00 0.00 78 1022.1
20260509021348 12 0 0.0 8.0 0.00 0.00 0.00 78 1022.1
20260509020835 12 0 1.6 1.6 0.00 0.00 0.00 77 1022.1
20260509020322 12 295 1.6 11.3 0.00 0.00 0.00 77 1022.1
20260509015809 11 0 6.4 11.3 0.00 0.00 0.00 77 1022.0
20260509015256 11 306 6.4 11.3 0.00 0.00 0.00 77 1022.0
20260509014743 12 357 0.0 12.9 0.00 0.00 0.00 77 1021.9
20260509014230 11 327 0.0 12.9 0.00 0.00 0.00 78 1021.8
20260509013717 12 345 3.2 12.9 0.00 0.00 0.00 78 1021.8
20260509013204 12 331 4.8 14.5 0.00 0.00 0.00 77 1021.8
20260509012137 11 287 8.0 14.5 0.00 0.00 0.00 78 1022.0
20260509011625 11 319 8.0 11.3 0.00 0.00 0.00 77 1022.0
20260509011111 11 313 8.0 11.3 0.00 0.00 0.00 78 1022.1
20260509010559 11 320 8.0 11.3 0.00 0.00 0.00 77 1022.2
20260509010046 11 336 8.0 11.3 0.00 0.00 0.00 77 1022.3
20260509005019 11 327 6.4 12.9 0.00 0.00 0.00 77 1022.4
20260509004506 12 289 4.8 12.9 0.00 0.00 0.00 77 1022.4
20260509003953 11 331 4.8 11.3 0.00 0.00 0.00 78 1022.5
20260509003440 11 299 1.6 12.9 0.00 0.00 0.00 78 1022.5
20260509002414 11 292 8.0 12.9 0.00 0.00 0.00 77 1022.6
20260509001901 11 302 8.0 12.9 0.00 0.00 0.00 77 1022.6
20260509001348 11 288 6.4 11.3 0.00 0.00 0.00 77 1022.6
20260509000322 11 282 8.0 11.3 0.00 0.00 0.00 76 1022.7
20260508234743 11 301 9.7 11.3 0.00 0.00 0.00 76 1022.7
20260508233717 11 320 4.8 11.3 0.00 0.00 0.00 77 1022.9
20260508230559 11 303 8.0 14.5 0.00 0.00 0.00 76 1023.0
20260508222415 12 299 8.0 16.1 0.00 0.00 0.00 76 1022.8
20260508220323 11 289 6.4 17.7 0.00 0.00 0.00 76 1022.9
20260508213205 12 285 9.7 20.9 0.00 0.00 0.00 75 1022.7
20260508212652 12 289 9.7 20.9 0.00 0.00 0.00 74 1022.8